EW9965 Weather Reports


time (UTC)temp
F
wind
direction
speed
knots
gust
knots
rain 1hr
in
rain 24hr
in
rain mn
in
humidity
%
barometer
mb
20260905121601 58 52 0.0 0.0 0.00 0.00 0.00 74 1012.6
20260905120100 58 53 0.0 0.0 0.00 0.00 0.00 74 1012.5
20260905114558 58 52 0.0 0.0 0.00 0.00 0.00 74 1012.6
20260905113102 59 61 0.0 0.0 0.00 0.00 0.00 76 1012.5
20260905111604 59 61 0.0 0.0 0.00 0.00 0.00 76 1012.6
20260905110052 59 61 0.0 0.0 0.00 0.00 0.00 77 1012.7
20260905104607 60 61 0.0 0.0 0.00 0.00 0.00 78 1012.8
20260905103051 60 61 0.0 0.0 0.00 0.00 0.00 78 1012.7
20260905101550 60 61 0.0 0.0 0.00 0.00 0.00 78 1012.8
20260905100047 61 61 0.0 0.0 0.00 0.00 0.00 78 1012.6
20260905094545 61 61 0.0 0.0 0.00 0.00 0.00 79 1012.7
20260905093043 62 49 0.0 0.0 0.00 0.00 0.00 78 1012.8
20260905091542 62 49 0.0 0.0 0.00 0.00 0.00 79 1012.8
20260905084538 63 24 0.0 0.0 0.00 0.00 0.00 78 1013.1
20260905083036 63 24 0.0 0.0 0.00 0.00 0.00 78 1013.1
20260905081533 64 1 0.0 0.9 0.00 0.00 0.00 78 1013.4
20260905080031 64 359 0.0 1.7 0.00 0.00 0.00 78 1013.5
20260905074529 64 1 0.0 1.7 0.00 0.00 0.00 77 1013.7
20260905073031 65 139 0.0 0.0 0.00 0.00 0.00 76 1013.9
20260905071525 65 139 0.0 0.0 0.00 0.00 0.00 75 1013.9
20260905070024 65 139 0.0 0.0 0.00 0.00 0.00 75 1013.8
20260905064524 66 139 0.0 0.0 0.00 0.00 0.00 74 1013.6
20260905063022 66 139 0.0 0.0 0.00 0.00 0.00 74 1013.6
20260905061531 67 139 0.0 0.0 0.00 0.00 0.00 73 1013.5
20260905060021 67 139 0.0 0.0 0.00 0.00 0.00 73 1013.4
20260905054526 67 139 0.0 0.0 0.00 0.00 0.00 72 1013.4
20260905053022 68 139 0.0 0.0 0.00 0.00 0.00 71 1013.2
20260905051521 68 139 0.0 0.0 0.00 0.00 0.00 70 1013.3
20260905050018 69 139 0.0 0.0 0.00 0.00 0.00 69 1013.4
20260905044524 70 139 0.0 0.9 0.00 0.00 0.00 69 1013.2
20260905043016 70 139 0.0 0.0 0.00 0.00 0.00 68 1013.0
20260905041516 71 139 0.0 1.7 0.00 0.00 0.00 68 1012.9
20260905040015 71 163 0.9 4.3 0.00 0.00 0.00 68 1013.0
20260905034515 72 163 0.0 5.2 0.00 0.00 0.00 67 1012.8
20260905033017 72 216 0.0 0.9 0.00 0.00 0.00 64 1012.7
20260905031514 73 178 0.9 2.6 0.00 0.00 0.00 62 1012.5
20260905030013 74 242 0.0 4.3 0.00 0.00 0.00 60 1012.3
20260905024512 75 252 2.6 5.2 0.00 0.00 0.00 57 1012.0
20260905023012 76 236 0.0 3.5 0.00 0.00 0.00 53 1012.0
20260905021520 78 189 0.0 4.3 0.00 0.00 0.00 50 1011.9
20260905020011 78 179 0.9 3.5 0.00 0.00 0.00 44 1011.9
20260905014509 80 253 1.7 5.2 0.00 0.00 0.00 40 1011.7
20260905013009 81 178 2.6 5.2 0.00 0.00 0.00 38 1011.7
20260905011508 82 166 1.7 6.1 0.00 0.00 0.00 38 1011.7
20260905010006 82 127 0.0 6.1 0.00 0.00 0.00 36 1011.6
20260905004504 83 155 0.9 7.0 0.00 0.00 0.00 36 1011.7
20260905003003 83 161 3.5 7.0 0.00 0.00 0.00 38 1011.8
20260905001502 84 180 4.3 8.7 0.00 0.00 0.00 38 1011.8
20260905000100 84 163 1.7 7.0 0.00 0.00 0.00 39 1011.8
20260904234601 85 163 1.7 8.7 0.00 0.00 0.00 39 1011.8
20260904233059 85 250 1.7 7.0 0.00 0.00 0.00 39 1011.7
20260904231557 85 180 0.9 8.7 0.00 0.00 0.00 40 1011.9
20260904230056 85 226 1.7 5.2 0.00 0.00 0.00 41 1011.9
20260904224555 85 204 2.6 7.8 0.00 0.00 0.00 40 1011.9
20260904223053 85 220 3.5 8.7 0.00 0.00 0.00 40 1012.0
20260904221555 86 175 3.5 8.7 0.00 0.00 0.00 40 1012.1
20260904220049 86 159 3.5 9.6 0.00 0.00 0.00 40 1012.3
20260904214557 86 160 5.2 10.4 0.00 0.00 0.00 40 1012.2
20260904213048 87 224 3.5 8.7 0.00 0.00 0.00 40 1012.2
20260904211548 87 178 2.6 10.4 0.00 0.00 0.00 38 1012.2
20260904210046 88 159 4.3 11.3 0.00 0.00 0.00 39 1012.3
20260904204545 88 258 3.5 7.8 0.00 0.00 0.00 39 1012.2
20260904203041 87 144 4.3 9.6 0.00 0.00 0.00 40 1012.4
20260904201540 86 213 2.6 7.8 0.00 0.00 0.00 40 1012.4
20260904200039 88 172 0.9 7.8 0.00 0.00 0.00 38 1012.4
20260904194538 87 149 2.6 8.7 0.00 0.00 0.00 37 1012.6
20260904193035 85 153 2.6 6.1 0.00 0.00 0.00 38 1012.6
20260904191533 85 197 2.6 7.0 0.00 0.00 0.00 38 1012.9
20260904190029 83 255 0.9 8.7 0.00 0.00 0.00 42 1013.1
20260904184528 83 149 1.7 6.1 0.00 0.00 0.00 42 1013.3
20260904183027 82 174 2.6 6.1 0.00 0.00 0.00 45 1013.4
20260904181525 80 180 0.9 5.2 0.00 0.00 0.00 45 1013.5
20260904180119 79 228 1.7 5.2 0.00 0.00 0.00 51 1013.5
20260904174514 78 188 0.9 6.1 0.00 0.00 0.00 52 1013.6
20260904173017 77 169 0.9 5.2 0.00 0.00 0.00 55 1013.7
20260904171513 75 253 2.6 5.2 0.00 0.00 0.00 58 1013.7
20260904170002 74 197 0.9 5.2 0.00 0.00 0.00 62 1013.8
20260904164615 73 264 1.7 6.1 0.00 0.00 0.00 64 1013.7
20260904163052 72 247 0.0 3.5 0.00 0.00 0.00 67 1013.7
20260904161556 71 256 1.7 4.3 0.00 0.00 0.00 69 1013.5
20260904160044 69 253 0.0 3.5 0.00 0.00 0.00 71 1013.4
20260904154543 68 149 0.0 3.5 0.00 0.00 0.00 72 1013.5
20260904153041 67 44 0.0 3.5 0.00 0.00 0.00 74 1013.4
20260904151533 66 46 0.0 3.5 0.00 0.00 0.00 76 1013.3
20260904150026 65 24 0.9 2.6 0.00 0.00 0.00 79 1013.2
20260904144521 65 95 0.0 4.3 0.00 0.00 0.00 80 1013.2
20260904143019 64 93 0.9 3.5 0.00 0.00 0.00 81 1013.1
20260904141514 64 109 1.7 5.2 0.00 0.00 0.00 82 1013.0
20260904140012 64 139 0.0 4.3 0.00 0.00 0.00 83 1012.8
20260904134505 64 123 0.0 4.3 0.00 0.00 0.00 83 1012.8
20260904133004 64 119 0.9 3.5 0.00 0.00 0.00 83 1012.8
20260904131502 64 53 0.0 0.0 0.00 0.00 0.00 83 1012.5
20260904130002 64 39 0.9 3.5 0.00 0.00 0.00 83 1012.4
20260904124501 64 357 0.0 3.5 0.00 0.00 0.00 84 1012.4
20260904123100 64 357 0.0 3.5 0.00 0.00 0.00 84 1012.3